Date,TemperatureHighF,TemperatureAvgF,TemperatureLowF,DewpointHighF,DewpointAvgF,DewpointLowF,HumidityHigh,HumidityAvg,HumidityLow,PressureMaxIn,PressureMinIn,WindSpeedMaxMPH,WindSpeedAvgMPH,GustSpeedMaxMPH,PrecipitationSumIn
2013-1-1,39,33,23,0,-4,-13,21,19,18,29.62,29.44,14,4,15,0.00
2013-1-2,30,22,16,-8,-13,-17,22,20,18,29.77,29.59,12,2,12,0.00
2013-1-3,34,20,10,-3,-14,-22,23,21,18,29.80,29.65,11,2,11,0.00
2013-1-4,38,28,19,0,-5,-13,33,22,19,29.68,29.53,90,3,90,0.00
2013-1-5,47,32,24,4,-5,-10,27,20,17,29.89,29.56,13,2,13,0.08
2013-1-6,48,33,26,7,0,-6,32,24,17,29.83,29.59,12,1,12,0.04
2013-1-7,49,34,22,5,-1,-9,31,23,16,30.01,29.65,11,2,12,0.08
2013-1-8,52,33,22,7,1,-5,38,27,16,30.04,29.95,12,1,12,0.00
2013-1-9,42,34,24,11,6,0,42,31,18,30.01,29.71,12,1,13,0.00
2013-1-10,51,39,31,6,0,-5,21,19,16,30.19,29.80,13,3,14,0.00
2013-1-11,41,34,27,27,6,-7,59,33,19,30.16,29.77,7,0,7,0.39
2013-1-12,45,41,39,31,28,24,65,58,54,29.80,29.71,5,0,5,0.12
2013-1-13,46,43,40,36,31,25,69,62,44,29.80,29.65,6,0,6,0.00
2013-1-14,58,46,34,44,24,-1,76,47,18,29.92,29.57,12,2,12,0.04
2013-1-15,38,34,31,14,5,-3,44,30,20,29.98,29.86,8,0,8,0.16
2013-1-16,34,32,30,20,13,-1,60,46,23,29.86,29.42,8,0,8,0.00
2013-1-17,50,35,29,21,6,-7,63,33,16,29.71,29.51,9,1,9,0.20
2013-1-18,36,24,17,-5,-12,-16,23,20,17,30.10,29.65,14,3,16,0.00
2013-1-19,44,36,19,4,-2,-13,24,19,18,30.01,29.54,13,3,13,0.04
2013-1-20,52,40,27,8,1,-11,32,20,16,29.62,29.30,23,4,23,0.16
2013-1-21,30,26,20,0,-9,-15,33,21,18,29.71,29.42,15,1,15,0.00
2013-1-22,30,19,10,-3,-15,-21,33,21,18,29.77,29.42,18,5,20,0.00
2013-1-23,26,12,5,-11,-20,-26,22,21,19,29.83,29.74,15,4,15,0.00
2013-1-24,29,12,2,-10,-20,-28,22,21,18,29.95,29.74,16,3,16,0.00
2013-1-25,24,16,5,-6,-16,-25,34,22,19,30.01,29.65,11,0,11,0.00
2013-1-26,33,19,12,-6,-14,-20,33,22,18,29.95,29.65,14,2,16,0.16
2013-1-27,41,20,6,0,-15,-25,24,20,17,30.10,29.95,13,1,13,0.16
2013-1-28,33,26,16,18,0,-17,54,34,19,30.10,29.62,7,0,7,0.00
2013-1-29,39,34,32,18,16,9,54,46,32,29.80,29.59,0,0,0,0.16
2013-1-30,55,46,34,50,36,16,85,66,46,29.74,29.06,15,1,15,0.16
2013-1-31,59,45,28,52,16,-10,86,37,16,29.36,28.71,26,7,27,1.34
2013-2-1,36,27,21,-2,-10,-14,20,19,18,29.80,29.36,21,4,21,0.16
2013-2-2,37,24,16,-2,-11,-17,32,21,17,29.89,29.68,13,2,14,0.00
2013-2-3,46,25,16,4,-6,-13,39,26,17,29.68,29.39,7,0,7,0.00
2013-2-4,40,25,19,0,-10,-16,34,21,17,29.59,29.39,16,3,16,0.00
2013-2-5,29,25,20,3,-5,-15,36,27,19,29.62,29.54,4,0,4,0.00
2013-2-6,48,30,21,8,-1,-12,44,27,17,29.95,29.54,12,2,12,0.00
2013-2-7,35,25,19,-2,-11,-16,22,19,17,30.13,29.95,8,0,9,0.00
2013-2-8,32,28,24,12,4,-9,45,35,21,29.98,29.21,20,1,20,0.00
2013-2-9,35,24,15,5,-6,-18,44,27,18,29.92,29.33,25,7,25,0.00
2013-2-10,51,25,12,6,-11,-20,22,20,16,30.07,29.92,11,1,11,0.00
2013-2-11,42,34,22,29,13,-11,68,43,21,29.98,29.30,9,0,9,0.00
2013-2-12,49,39,33,30,4,-3,74,26,16,29.57,29.33,18,2,18,0.04
2013-2-13,55,35,24,9,-1,-7,37,22,15,29.57,29.33,8,0,9,0.00
2013-2-14,56,36,26,12,5,-6,44,28,15,29.62,29.33,9,0,10,0.00
2013-2-15,55,32,26,14,7,3,44,36,15,29.62,29.59,4,0,4,0.00
2013-2-16,45,34,28,12,2,-9,42,27,18,29.59,29.33,12,1,14,0.04
2013-2-17,35,24,14,-2,-12,-18,21,20,18,29.51,29.21,24,6,24,0.00
2013-2-18,39,24,14,0,-12,-19,22,20,17,29.83,29.51,22,5,22,0.00
2013-2-19,47,34,19,29,5,-15,66,32,17,29.83,29.27,9,0,10,0.35
2013-2-20,41,30,23,7,-7,-13,30,20,18,29.54,29.30,18,4,18,0.04
2013-2-21,43,27,21,2,-10,-14,20,20,18,29.89,29.54,21,5,21,0.00
2013-2-22,48,30,20,4,-5,-14,27,22,17,30.01,29.86,12,0,13,0.00
2013-2-23,38,35,33,21,14,1,56,42,25,29.92,29.45,5,0,8,0.16
2013-2-24,44,37,32,24,12,-1,65,39,20,29.57,29.36,12,0,12,0.16
2013-2-25,56,38,29,8,0,-5,28,20,15,29.86,29.57,11,0,11,0.00
2013-2-26,44,34,26,14,4,-3,45,29,18,29.95,29.62,9,0,9,0.16
2013-2-27,43,39,33,35,27,15,73,62,46,29.62,29.15,13,0,14,1.46
2013-2-28,54,40,33,30,17,4,72,44,16,29.27,29.15,5,0,5,0.00
2013-3-1,56,38,33,15,3,-18,39,23,6,29.39,29.21,9,0,14,0.00
2013-3-2,42,35,30,2,-3,-6,20,19,18,29.39,29.30,19,0,19,0.16
2013-3-3,38,31,27,-1,-5,-8,23,20,19,29.33,29.27,18,1,19,0.00
2013-3-4,50,32,26,6,-5,-8,21,20,16,29.48,29.33,13,1,15,0.00
2013-3-5,57,39,29,10,-1,-7,20,18,15,29.65,29.48,9,1,15,0.00
2013-3-6,45,38,34,11,2,-3,30,22,17,29.62,29.54,13,0,16,0.00
2013-3-7,39,34,32,12,5,-2,43,30,18,29.68,29.54,14,0,14,0.04
2013-3-8,36,33,30,12,7,-3,43,34,19,29.80,29.59,9,0,9,0.00
2013-3-9,64,40,30,12,0,-10,30,18,10,29.95,29.77,10,0,10,0.47
2013-3-10,57,38,25,17,5,-1,42,27,15,30.01,29.92,5,0,5,0.00
2013-3-11,58,44,33,22,13,7,50,29,15,29.95,29.74,7,0,7,0.00
2013-3-12,53,49,40,45,33,17,79,56,29,29.74,29.33,12,0,12,1.97
2013-3-13,61,41,31,17,6,-13,41,25,6,29.51,29.39,10,0,11,0.00
2013-3-14,41,32,28,1,-5,-10,25,19,18,29.54,29.45,21,3,21,0.04
2013-3-15,51,35,25,6,-4,-11,20,18,16,29.57,29.33,14,1,14,0.00
2013-3-16,43,34,28,6,0,-7,32,23,18,29.54,29.39,12,0,12,0.00
2013-3-17,41,31,25,4,-3,-11,35,22,18,29.92,29.54,12,0,12,0.00
2013-3-18,39,29,20,10,-5,-14,42,23,18,30.04,29.71,12,0,12,0.00
2013-3-19,39,34,30,18,13,-1,51,43,23,29.71,29.30,9,0,9,0.24
2013-3-20,53,34,15,7,-3,-19,23,19,16,29.48,29.39,14,0,14,0.16
2013-3-21,44,34,29,2,-3,-9,25,20,18,29.45,29.24,10,0,10,0.00
2013-3-22,48,33,24,4,-5,-12,21,19,17,29.48,29.33,13,1,14,0.00
2013-3-23,55,38,29,8,-1,-7,20,19,15,29.54,29.39,17,2,17,0.00
2013-3-24,57,37,8,10,-2,-25,22,18,15,29.54,29.33,12,1,14,0.00
2013-3-25,46,39,32,4,0,-5,25,19,17,29.36,29.09,9,0,9,0.00
2013-3-26,62,40,35,12,0,-3,20,18,14,29.36,29.18,12,0,12,0.00
2013-3-27,62,39,28,12,-1,-7,21,18,14,29.51,29.48,11,1,12,0.00
2013-3-28,52,45,42,7,3,2,18,17,16,29.71,29.59,11,1,14,0.00
2013-3-29,69,47,36,14,4,-2,19,17,12,29.74,29.65,12,1,12,0.00
2013-3-30,69,46,34,14,4,-3,20,17,12,29.77,29.68,12,0,12,0.00
2013-3-31,60,43,27,22,4,-9,43,20,14,29.77,29.30,10,0,12,0.08
2013-4-1,68,47,34,31,14,-3,59,30,12,29.51,29.21,17,1,18,0.04
2013-4-2,56,37,28,8,-2,-11,20,18,15,29.65,29.51,18,3,19,0.00
2013-4-3,57,38,28,9,-2,-10,20,18,15,29.89,29.65,18,3,18,0.00
2013-4-4,63,40,24,13,0,-12,21,18,13,29.98,29.71,9,0,12,0.00
2013-4-5,76,49,37,21,5,-2,21,17,11,29.71,29.33,12,1,14,0.04
2013-4-6,61,42,31,11,1,-8,20,18,14,29.95,29.59,17,1,17,0.00
2013-4-7,63,46,30,21,9,-6,38,23,13,29.95,29.65,14,1,14,0.00
2013-4-8,79,56,37,25,16,7,46,23,11,29.71,29.59,11,0,11,0.00
2013-4-9,86,64,46,29,19,7,40,20,11,29.65,29.54,17,2,17,0.00
2013-4-10,75,59,48,33,20,8,46,23,12,29.59,29.45,13,0,19,1.18
2013-4-11,67,54,46,40,20,2,58,30,14,29.71,29.45,9,0,9,0.04
2013-4-12,46,41,38,22,12,-3,50,33,17,29.71,29.36,13,1,16,0.75
2013-4-13,59,46,33,21,12,3,53,28,14,29.59,29.39,7,0,7,0.04
2013-4-14,62,47,38,15,9,-1,33,22,14,29.86,29.57,14,1,14,0.00
2013-4-15,61,46,34,11,4,-3,23,17,14,30.01,29.86,7,0,7,0.00
2013-4-16,70,52,36,29,15,2,39,24,12,30.01,29.77,10,1,13,0.00
2013-4-17,74,59,47,29,14,4,38,19,11,29.92,29.74,12,0,13,0.00
2013-4-18,68,52,39,19,11,4,35,20,12,30.01,27.94,9,0,9,0.00
2013-4-19,77,60,51,48,33,19,69,39,13,29.77,29.33,14,1,14,0.00
2013-4-20,61,53,42,42,16,2,52,25,14,29.89,29.30,19,1,19,0.16
2013-4-21,63,44,32,12,3,-4,20,17,13,30.27,29.89,13,1,14,0.00
2013-4-22,62,45,31,12,6,-1,34,20,14,30.30,30.16,12,0,12,0.00
2013-4-23,50,42,36,13,5,-1,31,21,16,30.16,29.71,8,0,9,0.00
2013-4-24,76,55,41,26,16,8,37,23,12,29.71,29.51,10,0,10,0.00
2013-4-25,72,56,42,28,12,1,40,19,11,29.89,29.51,14,1,14,0.00
2013-4-26,75,53,34,20,8,-2,30,17,11,30.04,29.89,10,0,10,0.00
2013-4-27,74,55,32,21,8,-7,18,15,11,30.07,29.92,6,0,9,0.00
2013-4-28,73,55,39,20,11,2,34,18,12,29.95,29.86,6,0,12,0.00
2013-4-29,60,54,48,18,10,5,27,18,14,29.89,29.83,0,0,5,0.00
2013-4-30,74,57,43,21,11,3,27,17,12,29.98,29.86,6,0,9,0.00
2013-5-1,73,55,36,21,9,-1,22,16,11,30.13,29.98,3,0,8,0.00
2013-5-2,79,59,38,24,16,8,38,21,12,30.10,29.95,4,0,8,0.00
2013-5-3,74,58,48,20,11,5,28,16,12,30.10,29.98,0,0,10,0.00
2013-5-4,73,55,42,24,15,5,39,23,12,30.01,29.89,0,0,8,0.00
2013-5-5,64,50,36,17,11,5,39,21,13,29.95,29.86,6,0,6,0.00
2013-5-6,72,56,40,20,16,9,35,22,12,29.92,29.80,7,0,8,0.00
2013-5-7,78,61,44,30,21,15,38,23,13,29.83,29.74,6,0,6,0.00
2013-5-8,65,60,56,45,36,18,54,43,28,29.77,29.65,8,0,8,0.16
2013-5-9,62,57,53,42,37,26,58,47,27,29.68,29.54,5,0,5,0.00
2013-5-10,82,64,49,51,27,16,62,30,12,29.62,29.57,5,0,5,0.00
2013-5-11,64,60,58,46,37,24,57,42,25,29.57,29.36,9,0,9,0.04
2013-5-12,70,60,49,45,26,5,62,33,12,29.54,29.30,12,0,12,0.04
2013-5-13,60,49,38,10,6,-1,24,17,14,29.71,29.54,12,0,12,0.00
2013-5-14,61,49,36,11,6,-1,27,18,14,29.74,29.65,11,0,11,0.00
2013-5-15,64,51,35,25,14,4,37,24,14,29.71,29.33,8,0,8,0.00
2013-5-16,81,64,48,33,22,12,39,22,12,29.48,29.36,10,0,10,0.00
2013-5-17,70,61,50,20,12,7,22,14,12,29.86,29.48,9,0,9,0.00
2013-5-18,71,57,45,22,15,9,31,20,12,29.95,29.86,9,0,9,0.00
2013-5-19,57,55,54,33,27,22,40,34,27,29.98,29.92,3,0,3,0.00
2013-5-23,66,64,64,52,48,43,65,56,43,29.48,29.42,5,0,5,0.04
2013-5-24,66,56,45,54,39,18,68,53,27,29.54,29.33,9,0,9,0.39
2013-5-25,47,45,42,27,21,9,51,40,25,29.57,29.48,11,0,11,0.63
2013-5-26,63,52,43,15,11,5,30,20,13,29.80,29.51,12,0,12,0.00
2013-5-27,73,54,39,21,14,7,37,23,12,29.86,29.74,0,0,5,0.00
2013-5-28,70,56,45,36,22,12,45,29,12,29.86,29.80,0,0,3,0.00
2013-5-29,76,65,57,44,37,31,53,38,20,29.80,29.65,0,0,4,0.00
2013-5-30,88,75,61,48,31,21,45,24,10,29.77,29.68,0,0,5,0.12
2013-5-31,90,76,63,42,30,20,36,21,10,29.77,29.65,3,0,6,0.00
2013-6-1,86,75,62,40,29,22,36,21,11,29.68,29.57,0,0,7,0.00
2013-6-2,83,74,66,38,32,24,34,23,12,29.57,29.42,3,0,9,0.00
2013-6-3,76,69,64,51,39,20,57,36,17,29.51,29.45,0,0,4,1.34
2013-6-4,74,63,53,21,15,10,26,16,12,29.74,29.54,3,0,9,0.00
2013-6-5,72,61,50,20,16,10,27,17,12,29.86,29.74,3,0,5,0.00
2013-6-6,69,60,50,33,24,16,39,26,15,29.80,29.68,0,0,4,0.04
2013-6-7,60,58,56,48,43,34,67,56,40,29.68,29.33,0,0,5,20.00
2013-6-8,74,64,54,50,35,23,72,40,16,29.68,29.24,0,0,4,1.38
2013-6-9,78,67,55,39,26,18,38,24,13,29.83,29.68,3,0,6,0.00
2013-6-10,72,62,59,46,36,30,61,39,22,29.83,29.57,4,0,5,5.43
2013-6-11,77,66,60,55,41,23,64,44,15,29.54,29.24,10,0,10,7.48
2013-6-12,73,65,56,26,21,16,29,19,14,29.51,29.30,5,0,11,0.00
2013-6-13,59,56,52,40,34,24,58,43,29,29.48,29.21,0,0,7,5.59
2013-6-14,69,58,51,45,34,19,67,45,15,29.51,29.21,0,0,90,3.82
2013-6-15,77,65,54,38,26,17,46,25,13,29.65,29.51,3,0,4,0.00
2013-6-16,76,65,53,34,26,19,37,24,13,29.62,29.42,0,0,4,0.00
2013-6-17,81,70,60,42,33,22,39,28,12,29.57,29.48,0,0,14,0.31
2013-6-18,79,68,60,47,38,26,49,35,15,29.57,29.48,0,0,3,2.01
2013-6-19,74,64,55,42,28,14,58,30,13,29.80,29.54,0,0,4,0.00
2013-6-20,76,64,50,33,23,18,37,23,13,29.92,29.80,0,0,4,0.00
2013-6-29,75,72,69,40,38,32,34,29,21,29.39,29.30,0,0,0,0.75
2013-6-30,81,72,67,47,42,35,42,34,20,29.59,29.39,5,0,5,0.00
2013-7-1,75,72,71,55,50,45,51,46,36,29.71,29.57,5,0,5,0.39
2013-7-2,80,74,72,59,46,34,58,39,21,29.83,29.71,5,0,5,0.00
2013-7-3,83,75,70,48,42,35,44,32,19,29.89,29.83,4,0,4,0.04
2013-7-4,87,81,74,42,37,28,31,21,13,29.86,29.80,4,0,4,0.00
2013-7-5,88,79,70,47,38,24,40,25,10,29.86,29.74,5,0,12,0.00
2013-7-6,89,80,72,45,38,25,35,24,10,29.77,29.68,90,0,90,0.00
2013-7-7,90,80,72,48,39,25,39,25,10,29.71,29.57,3,0,3,0.00
2013-7-8,87,78,69,42,32,23,34,20,11,29.68,29.59,3,0,4,0.63
2013-7-9,86,76,67,45,38,28,38,27,13,29.74,29.65,0,0,0,0.00
2013-7-10,86,76,71,55,44,36,43,33,19,29.68,29.45,3,0,3,0.28
2013-7-11,80,74,68,58,47,31,54,40,20,29.59,29.45,0,0,0,0.12
2013-7-12,77,71,64,38,34,28,36,26,18,29.80,29.57,3,0,5,0.12
2013-7-13,76,70,64,50,44,36,48,39,32,29.95,29.80,4,0,4,0.00
2013-7-14,87,79,73,56,42,28,53,30,13,29.98,29.89,4,0,4,0.04
2013-7-15,90,81,74,44,35,25,32,20,10,29.89,29.80,4,0,4,0.00
2013-7-16,90,80,72,39,30,23,29,17,10,29.86,29.77,4,0,4,0.00
2013-7-17,91,80,70,42,33,24,33,20,10,29.86,29.71,0,0,0,0.00
2013-7-18,92,82,73,46,35,24,34,20,9,29.71,29.62,4,0,4,0.00
2013-7-19,93,84,74,46,35,24,35,20,9,29.62,29.45,7,0,7,0.00
2013-7-20,90,82,74,43,34,24,29,19,10,29.51,29.36,0,0,4,0.00
2013-7-21,84,75,69,38,29,20,29,19,11,29.62,29.51,0,0,0,0.04
2013-7-22,82,73,68,48,40,35,43,30,20,29.62,29.48,3,0,3,0.04
2013-7-23,84,76,72,60,46,29,59,38,16,29.59,25.61,3,0,4,0.28
2013-7-24,80,73,52,53,35,6,50,28,12,29.59,29.27,4,0,4,0.00
2013-7-25,65,62,60,34,22,14,38,22,15,29.71,29.59,0,0,0,0.00
2013-7-26,76,66,51,41,32,20,48,30,13,29.71,29.62,3,0,3,0.12
2013-7-27,80,69,60,42,29,21,39,25,12,29.71,27.82,0,0,3,0.00
2013-7-28,77,70,63,41,34,25,37,28,15,29.65,29.59,0,0,0,0.00
2013-7-29,83,74,66,45,32,19,40,24,11,29.74,29.62,4,0,4,0.00
2013-7-30,78,69,58,30,22,19,29,18,13,29.80,29.74,0,0,0,0.00
2013-7-31,80,68,58,36,26,20,35,22,12,29.80,29.71,0,0,0,0.00
2013-8-1,74,66,61,50,37,29,54,35,21,29.71,29.51,0,0,0,1.10
2013-8-2,80,71,66,56,37,21,65,34,12,29.57,29.45,4,0,4,0.24
2013-8-3,76,68,63,46,35,24,45,32,15,29.57,29.48,3,0,4,0.16
2013-8-4,78,69,60,36,25,16,37,20,13,29.59,29.51,4,0,4,0.04
2013-8-5,75,65,57,26,20,12,28,18,12,29.71,29.59,3,0,3,0.00
2013-8-6,78,65,53,29,23,18,36,21,13,29.80,29.71,0,0,0,0.00
2013-8-7,75,67,57,36,27,19,35,23,13,29.83,29.74,4,0,4,0.00
2013-8-8,77,72,68,55,43,31,55,37,22,29.74,29.68,0,0,0,0.87
2013-8-9,80,74,71,71,54,42,76,52,32,29.68,29.45,6,0,6,0.67
2013-8-10,80,72,62,58,36,18,66,33,12,29.71,29.51,5,0,5,0.00
2013-8-11,77,66,47,32,22,14,28,20,13,29.77,29.68,0,0,0,0.00
2013-8-12,78,69,64,38,28,19,36,23,13,29.71,29.59,0,0,0,0.00
2013-8-13,73,68,63,46,38,29,42,34,22,29.59,29.36,3,0,3,0.28
2013-8-14,73,66,57,39,22,11,36,20,12,29.68,29.39,5,0,6,0.00
2013-8-15,77,62,50,31,22,14,36,22,12,29.80,29.68,3,0,3,0.00
2013-8-16,80,64,52,34,23,16,36,23,12,29.86,29.77,0,0,3,0.04
2013-8-17,80,66,55,34,25,18,36,23,12,29.95,29.86,0,0,0,0.04
2013-8-18,75,66,59,36,29,20,35,27,13,29.92,29.77,0,0,0,0.00
2013-8-19,77,67,58,37,30,20,36,26,13,29.77,29.68,0,0,0,0.00
2013-8-20,85,71,61,40,29,20,36,24,11,29.80,29.68,3,0,32,0.04
2013-8-21,88,72,61,40,29,20,35,22,11,29.83,29.71,3,0,3,0.04
2013-8-22,76,70,65,49,40,33,40,34,22,29.71,29.54,0,0,3,0.28
2013-8-23,78,71,62,46,28,17,42,22,13,29.77,29.54,3,0,3,0.00
2013-8-24,79,65,0,26,20,0,29,18,12,30.01,29.77,3,0,3,0.00
2013-8-25,74,58,52,35,28,20,37,32,13,30.04,29.98,0,0,0,0.00
2013-9-1,80,76,72,46,41,34,35,29,21,29.53,29.47,3,0,3,0.00
2013-9-2,83,73,68,52,45,34,54,37,20,29.47,29.35,6,0,6,3.46
2013-9-3,74,70,61,59,44,20,63,43,16,29.53,29.38,4,0,4,0.00
2013-9-4,80,66,57,36,27,18,39,25,12,29.65,29.53,5,0,5,0.04
2013-9-5,76,64,52,35,23,9,36,23,12,29.80,29.56,4,0,4,0.00
2013-9-6,72,57,49,20,13,10,30,18,12,29.91,29.77,0,0,0,0.00
2013-9-7,79,60,46,28,20,14,37,23,12,29.77,29.56,3,0,4,0.00
2013-9-8,81,66,56,31,22,8,33,19,12,29.74,29.47,5,0,5,0.00
2013-9-9,70,58,46,24,16,8,34,20,12,29.88,29.74,4,0,4,0.00
2013-9-10,77,69,58,46,37,24,39,32,22,29.83,29.71,4,0,4,0.08
2013-9-11,98,78,68,50,38,25,44,27,8,29.77,29.65,3,0,4,0.28
2013-9-12,87,74,68,47,39,24,47,30,13,29.65,29.35,3,0,3,0.04
2013-9-13,72,66,57,54,37,15,61,37,16,29.47,29.29,3,0,3,0.16
2013-9-14,72,57,50,23,17,12,32,21,12,29.77,29.47,4,0,4,0.00
2013-9-15,72,56,44,27,19,12,38,26,12,29.85,29.74,0,0,0,0.00
2013-9-16,70,58,53,36,24,11,40,28,15,29.88,29.68,4,0,4,0.00
2013-9-17,68,52,42,17,10,3,31,19,12,30.06,29.88,0,0,3,0.00
2013-9-18,75,53,40,27,16,9,38,25,12,30.00,29.83,0,0,0,0.00
2013-9-19,80,57,44,32,20,12,38,25,12,29.83,29.71,0,0,0,0.00
2013-9-20,87,60,47,35,22,17,37,25,11,29.74,29.65,0,0,0,0.00
2013-9-21,70,63,53,44,33,25,41,32,23,29.68,29.32,4,0,4,0.12
2013-9-22,79,61,51,47,28,10,55,31,13,29.56,29.29,5,0,5,1.73
2013-9-23,71,53,45,16,11,6,28,19,12,29.68,29.53,6,0,6,0.00
2013-9-24,72,53,41,24,14,8,37,23,11,29.68,29.50,5,0,5,0.00
2013-9-25,76,56,45,27,19,11,41,26,11,29.59,29.53,0,0,0,0.00
2013-9-26,66,59,51,29,23,16,36,26,15,29.77,29.59,0,0,0,0.00
2013-9-27,63,56,48,29,22,14,39,28,16,29.91,29.77,0,0,0,0.00
2013-9-28,71,58,48,30,22,13,38,27,12,29.97,29.88,0,0,0,0.00
2013-9-29,71,56,48,33,22,14,38,29,14,29.88,29.74,0,0,0,0.00
2013-9-30,72,56,45,29,21,12,39,27,12,29.74,29.62,0,0,0,0.00
2013-10-1,79,60,48,33,23,16,38,26,12,29.65,29.56,0,0,0,0.00
2013-10-2,80,64,51,34,25,18,37,25,12,29.65,29.56,4,0,4,0.08
2013-10-3,75,62,50,31,24,16,36,25,13,29.77,29.65,4,0,4,0.00
2013-10-4,78,64,56,42,32,25,37,31,15,29.74,29.62,3,0,3,0.00
2013-10-5,72,65,61,36,32,23,36,30,16,29.77,29.68,0,0,0,0.00
2013-10-6,65,62,61,46,40,34,55,44,35,29.80,29.71,3,0,3,0.00
2013-10-7,73,66,57,60,45,33,69,49,24,29.71,29.44,9,0,9,0.31
2013-10-8,66,54,47,33,19,8,48,27,13,30.00,29.62,5,0,6,0.00
2013-10-9,61,52,44,20,15,8,37,25,14,30.06,29.97,3,0,3,0.00
2013-10-10,61,54,48,25,21,18,34,28,19,29.97,29.77,0,0,0,0.00
2013-10-11,68,61,54,29,24,18,29,25,15,29.77,29.71,3,0,3,0.00
2013-10-12,73,60,52,26,18,11,26,19,12,29.97,29.74,5,0,5,0.00
2013-10-13,67,55,49,26,18,10,37,24,13,30.03,29.94,0,0,0,0.00
2013-10-14,63,52,42,24,18,11,38,27,13,30.03,29.91,0,0,0,0.00
2013-10-15,72,54,45,29,18,6,39,26,12,29.91,29.77,0,0,0,0.00
2013-10-16,64,56,46,31,21,13,35,26,16,29.77,29.59,0,0,0,0.00
2013-10-17,72,63,59,40,30,18,43,30,14,29.59,29.35,4,0,4,0.00
2013-10-18,70,60,49,41,18,4,44,21,12,29.62,29.32,5,0,6,0.00
2013-10-19,65,52,40,26,13,4,34,22,13,29.65,29.38,0,0,0,0.00
2013-10-20,67,53,41,29,13,2,36,22,12,29.71,29.38,45,0,45,0.00
2013-10-21,71,51,37,16,10,4,33,21,12,29.80,29.65,4,0,4,0.00
2013-10-22,67,52,42,26,15,8,38,24,12,29.65,29.38,5,0,5,0.00
2013-10-23,51,44,34,14,8,2,36,23,16,29.47,29.26,0,0,0,0.00
2013-10-24,59,44,35,10,4,-1,30,19,14,29.59,29.35,10,0,11,0.00
2013-10-25,55,42,32,8,2,-4,25,18,15,29.85,29.59,7,0,7,0.00
2013-10-26,54,41,30,10,5,-5,34,23,13,29.83,29.53,9,0,9,0.00
2013-10-27,62,47,35,12,4,-2,21,17,14,29.74,29.47,7,0,7,0.00
2013-10-28,64,46,31,12,6,-16,31,20,13,29.97,29.74,6,0,6,0.00
2013-10-29,50,42,35,6,2,-4,20,18,16,30.06,29.97,0,0,0,0.00
2013-10-30,56,45,35,14,5,-3,30,20,15,29.97,29.83,0,0,0,0.00
2013-10-31,63,52,38,39,23,11,44,33,24,29.88,29.47,4,0,4,0.00
2013-11-1,67,61,51,44,29,14,52,32,15,29.47,29.18,16,0,16,0.16
2013-11-2,79,54,45,27,17,7,39,25,11,29.41,29.26,5,0,5,0.00
2013-11-3,61,44,32,15,5,-7,29,20,14,30.06,29.41,10,0,10,0.00
2013-11-4,59,36,28,10,-4,-10,20,18,14,30.30,30.06,3,0,3,0.00
2013-11-5,61,41,30,11,1,-9,26,18,14,30.30,30.15,0,0,4,0.00
2013-11-6,67,50,36,29,14,8,38,25,12,30.15,29.71,3,0,3,0.00
2013-11-7,62,53,36,41,26,7,51,37,21,29.71,29.35,9,0,9,0.16
2013-11-8,61,40,32,12,3,-4,33,21,14,29.80,29.53,9,0,9,0.00
2013-11-9,47,39,28,6,0,-6,30,19,17,29.88,29.65,3,0,90,0.00
2013-11-10,68,48,42,13,4,-16,23,17,12,29.65,29.41,24,0,24,0.00
2013-11-11,58,46,35,9,4,-3,20,17,14,29.80,29.59,14,0,18,0.00
2013-11-12,49,35,26,12,-1,-11,41,22,16,29.88,29.56,12,0,12,0.04
2013-11-13,47,29,19,4,-8,-17,20,19,17,29.97,29.88,10,0,11,0.00
2013-11-14,56,38,25,8,-2,-11,21,18,15,29.88,29.74,10,0,10,0.00
2013-11-15,62,41,27,12,0,-11,22,17,14,29.88,29.80,0,0,3,0.04
2013-11-16,68,46,34,15,7,-3,33,20,12,29.94,29.85,0,0,0,0.00
2013-11-17,59,52,37,41,29,13,54,41,28,29.91,29.47,0,0,0,0.00
2013-11-18,70,58,47,52,21,4,71,30,11,29.44,29.23,23,0,23,0.31
2013-11-19,56,41,31,8,1,-8,20,18,15,29.97,29.38,23,0,23,0.08
2013-11-20,52,33,24,7,-6,-12,20,18,16,30.24,29.97,6,0,7,0.00
2013-11-21,54,37,23,8,-3,-13,22,18,16,30.27,30.03,0,0,0,0.00
2013-11-22,52,46,41,29,19,4,44,34,21,30.03,29.50,0,0,3,0.16
2013-11-23,53,41,28,25,2,-10,38,19,16,29.65,29.50,18,0,18,0.00
2013-11-24,35,24,20,-5,-12,-14,20,19,17,29.91,29.56,23,0,23,0.00
2013-11-25,40,26,12,0,-11,-20,22,19,17,30.06,29.91,3,0,90,0.00
2013-11-26,44,35,31,27,2,-8,51,25,18,29.94,29.50,18,0,18,0.31
2013-11-27,61,48,33,54,33,-3,78,59,20,29.50,28.94,32,1,32,3.03
2013-11-28,40,29,23,0,-8,-13,21,19,17,30.09,29.29,28,1,38,0.00
2013-11-29,44,29,21,3,-8,-14,24,20,18,30.36,30.09,0,0,0,0.04
2013-11-30,41,26,17,0,-10,-16,23,20,18,30.39,30.03,0,0,0,0.00
2013-12-1,53,38,31,9,3,-5,35,22,16,30.00,29.65,0,0,0,0.00
2013-12-2,47,35,29,14,8,0,42,34,17,29.65,29.53,0,0,0,0.00
2013-12-3,52,37,28,18,7,-1,43,30,16,29.62,29.50,0,0,0,0.04
2013-12-4,58,40,29,11,5,-1,34,24,14,29.80,29.62,0,0,0,0.00
2013-12-5,55,50,41,41,30,10,63,46,28,29.80,29.59,0,0,0,0.04
2013-12-6,54,44,35,43,24,6,67,46,26,29.77,29.50,0,0,0,0.51
2013-12-7,42,33,26,17,3,-8,49,29,18,30.12,29.71,0,0,0,0.08
2013-12-8,31,27,21,1,-7,-11,31,21,20,30.21,30.03,0,0,0,0.00
2013-12-9,35,32,27,19,12,1,54,44,31,30.03,29.56,0,0,0,0.00
2013-12-10,34,30,22,22,14,1,63,52,36,29.71,29.44,0,0,0,0.00
2013-12-11,37,25,18,1,-6,-13,40,26,18,29.91,29.71,0,0,0,0.00
2013-12-12,37,20,10,-2,-15,-21,22,20,17,29.94,29.74,0,0,0,0.00
2013-12-13,39,24,16,0,-12,-17,22,19,17,29.97,29.71,4,0,4,0.00
2013-12-14,23,19,15,-2,-11,-16,34,25,20,30.15,29.53,0,0,0,0.00
2013-12-15,34,30,23,11,3,-9,43,33,20,29.53,29.12,0,0,0,0.00
2013-12-16,37,27,22,-1,-10,-13,27,19,17,29.85,29.41,0,0,0,0.00
2013-12-17,28,28,28,-10,-10,-10,18,18,18,29.85,29.56,0,0,0,0.00
2013-12-18,28,28,28,-10,-10,-10,18,18,18,29.77,29.53,126,0,126,0.00
2013-12-19,28,28,28,-10,-10,-10,18,18,18,29.77,29.62,0,0,0,0.00
2013-12-20,28,28,28,-10,-10,-10,18,18,18,29.74,29.59,0,0,0,0.00
2013-12-21,66,30,28,24,-7,-10,39,20,14,29.62,29.53,0,0,0,0.00
2013-12-22,64,56,48,53,35,21,74,47,24,29.62,29.44,18,0,18,0.00
2013-12-23,57,46,33,42,21,-4,57,39,20,29.77,29.53,9,0,18,0.00
2013-12-24,45,32,24,3,-4,-12,28,20,18,29.91,29.71,6,0,13,0.00
2013-12-25,37,23,15,-2,-13,-18,21,20,17,30.12,29.91,4,0,9,0.00
2013-12-26,35,27,22,-1,-7,-13,34,22,19,30.06,29.77,0,0,3,0.00
2013-12-27,42,29,20,2,-4,-10,37,24,18,29.94,29.85,0,0,0,0.00
2013-12-28,53,35,23,8,-1,-9,34,22,16,29.88,29.68,7,0,7,7.72
2013-12-29,42,38,33,25,9,-4,54,32,18,29.68,29.06,17,0,22,0.00
2013-12-30,41,31,17,25,4,-16,60,34,18,29.83,29.26,16,0,16,0.00
2013-12-31,33,22,15,-6,-13,-18,21,20,18,29.85,29.65,7,0,9,0.00
2014-1-1,37,25,17,-2,-12,-16,21,19,17,30.00,29.85,6,0,6,0.00
2014-1-2,27,20,10,-7,-11,-17,29,24,19,29.91,29.32,6,0,6,0.00